Weather History for KPNS - November, 2011

Change the Weather History Date:

Thursday, November 3, 2011

  Actual Average Record
Temperature  
Mean Temperature 63 °F 64 °F  
Max Temperature 78 °F 74 °F 85 °F (1957)
Min Temperature 47 °F 55 °F 29 °F (1954)
Degree Days  
Heating Degree Days 2 3  
Month to date heating degree days 9 9  
Since 1 July heating degree days 68 47  
Cooling Degree Days 0 3  
Month to date cooling degree days 0 9  
Year to date cooling degree days 2851 2559  
Growing Degree Days 13 (Base 50)    
Moisture  
Dew Point 57 °F    
Average Humidity 80    
Maximum Humidity 100    
Minimum Humidity 60    
Precipitation  
Precipitation T in 0.16 in 7.48 in (1903)
Month to date precipitation T 0.49  
Year to date precipitation 39.20 56.48  
Snow  
Snow 0.00 in 0.00 in 0.00 in (2002)
Month to date snowfall 0.0 0.0  
Since 1 July snowfall 0.0 0.0  
Snow Depth 0.00 in    
Sea Level Pressure  
Sea Level Pressure 30.04 in    
Wind  
Wind Speed 13 mph (SSW)    
Max Wind Speed 30 mph    
Max Gust Speed 40 mph    
Visibility 10 miles    
Events      
T = Trace of Precipitation, MM = Missing Value Source: NWS Daily Summary

Daily Weather History Graph

Daily Weather History Graph

Search for Another Location

Airport or City:

Trip Planner

Search our weather history database for the weather conditions in past years. The results will help you decide how hot, cold, wet, or windy it might be!

Date:

Astronomy

Nov. 03, 2011 Rise Set
Actual Time 7:04 AM CDT 5:59 PM CDT
Civil Twilight 6:39 AM CDT 6:24 PM CDT
Nautical Twilight 6:11 AM CDT 6:52 PM CDT
Astronomical Twilight 5:43 AM CDT 7:21 PM CDT
Moon 1:58 PM CDT (11/3) 12:44 AM CDT (11/3)
Length of Visible Light 11h 44m
Length of Day
10h 54m
First Quarter, 60% of the Moon is Illuminated
Nov 3
First Quarter
Nov 10
Full
Nov 18
Last Quarter
Nov 25
New
Dec 2
First Quarter

Hourly Weather History & Observations

Time (CDT) Temp. Dew Point Humidity Pressure Visibility Wind Dir Wind Speed Gust Speed Precip Events Conditions
12:53 AM 64.9 °F 57.0 °F 75% 30.16 in 10.0 mi SE 10.4 mph - N/A   Clear
1:53 AM 64.9 °F 57.0 °F 75% 30.15 in 10.0 mi SE 9.2 mph - N/A   Clear
2:53 AM 64.0 °F 57.9 °F 80% 30.13 in 10.0 mi ESE 8.1 mph - N/A   Clear
3:53 AM 63.0 °F 57.9 °F 84% 30.13 in 10.0 mi East 5.8 mph - N/A   Clear
4:53 AM 61.0 °F 57.0 °F 87% 30.13 in 10.0 mi East 9.2 mph - N/A   Clear
5:53 AM 61.0 °F 57.9 °F 90% 30.12 in 10.0 mi East 10.4 mph - N/A   Clear
6:53 AM 61.0 °F 60.1 °F 97% 30.12 in 10.0 mi East 6.9 mph - N/A   Clear
7:53 AM 62.1 °F 61.0 °F 96% 30.12 in 8.0 mi East 4.6 mph - N/A   Partly Cloudy
8:21 AM 64.4 °F 62.6 °F 94% 30.10 in 9.0 mi ESE 4.6 mph - N/A   Mostly Cloudy
8:53 AM 68.0 °F 64.0 °F 87% 30.10 in 10.0 mi SE 9.2 mph - N/A   Overcast
9:28 AM 73.4 °F 64.4 °F 73% 30.08 in 10.0 mi SSE 15.0 mph - N/A   Scattered Clouds
9:53 AM 73.0 °F 64.0 °F 73% 30.10 in 10.0 mi SSE 12.7 mph - N/A   Mostly Cloudy
10:34 AM 75.2 °F 64.4 °F 69% 30.08 in 10.0 mi SSE 15.0 mph 23.0 mph N/A   Partly Cloudy
10:53 AM 78.1 °F 64.0 °F 62% 30.08 in 10.0 mi South 13.8 mph 20.7 mph N/A   Clear
11:53 AM 75.9 °F 63.0 °F 64% 30.05 in 10.0 mi South 16.1 mph - N/A   Overcast
12:53 PM 77.0 °F 62.1 °F 60% 30.02 in 10.0 mi South 18.4 mph - N/A   Overcast
1:53 PM 77.0 °F 62.1 °F 60% 29.98 in 10.0 mi South 19.6 mph 26.5 mph N/A   Mostly Cloudy
2:53 PM 75.0 °F 64.9 °F 71% 29.96 in 10.0 mi SSW 13.8 mph 21.9 mph N/A   Overcast
3:49 PM 73.4 °F 66.2 °F 78% 29.94 in 10.0 mi SSW 11.5 mph - 0.00 in   Overcast
3:53 PM 73.9 °F 66.0 °F 76% 29.94 in 10.0 mi SSW 13.8 mph - 0.00 in   Overcast
4:53 PM 75.0 °F 66.9 °F 76% 29.94 in 10.0 mi West 16.1 mph 19.6 mph N/A   Mostly Cloudy
5:32 PM 66.2 °F 60.8 °F 83% 29.95 in 10.0 mi NW 21.9 mph 27.6 mph N/A   Overcast
5:53 PM 61.0 °F 57.0 °F 87% 29.98 in 10.0 mi NW 18.4 mph 28.8 mph N/A   Overcast
6:03 PM 60.8 °F 55.4 °F 82% 29.96 in 10.0 mi NW 16.1 mph - N/A   Overcast
6:19 PM 60.8 °F 55.4 °F 82% 29.97 in 10.0 mi NW 15.0 mph - N/A   Overcast
6:44 PM 60.8 °F 55.4 °F 82% 29.98 in 10.0 mi NW 17.3 mph 26.5 mph N/A   Overcast
6:53 PM 59.0 °F 54.0 °F 83% 29.99 in 10.0 mi NW 17.3 mph 25.3 mph N/A   Overcast
7:00 PM 59.0 °F 53.6 °F 82% 29.99 in 10.0 mi WNW 16.1 mph 25.3 mph N/A   Mostly Cloudy
7:11 PM 57.2 °F 51.8 °F 82% 29.99 in 10.0 mi NW 21.9 mph 27.6 mph N/A   Mostly Cloudy
7:53 PM 54.0 °F 48.0 °F 80% 30.02 in 10.0 mi NNW 17.3 mph 29.9 mph N/A   Mostly Cloudy
8:53 PM 51.8 °F 42.8 °F 71% 30.05 in 10.0 mi NNW 24.2 mph 31.1 mph N/A   Clear
9:53 PM 48.9 °F 39.9 °F 71% 30.07 in 10.0 mi NNW 20.7 mph 27.6 mph N/A   Clear
10:53 PM 48.0 °F 39.9 °F 74% 30.07 in 10.0 mi North 16.1 mph 23.0 mph N/A   Clear
11:53 PM 48.2 °F 39.2 °F 71% 30.06 in 10.0 mi NNW 13.8 mph - N/A   Clear